Location: ??????
(56.0120°N, 39.1740°E)
Time: 06:27:49
(UTC+00:00)

NOSS 3-4 (C) - Pass Details

Date: 14 April 2026
Orbit: 773 x 1438 km, 63.4° (Epoch: 26 December)

Event Time Altitude Azimuth Distance (km) Brightness Sun altitude
Rises 18:05:34 0° 196° (SSW) 3,249 6.0 -12.7°
Reaches altitude 10° 18:08:03 10° 187° (S) 2,350 5.2 -12.9°
Maximum altitude 18:12:52 36° 123° (ESE) 1,305 3.7 -13.5°
Drops below altitude 10° 18:18:12 10° 59° (ENE) 2,600 5.6 -14.0°
Sets 18:21:04 0° 51° (NE) 3,644 6.4 -14.3°
